This demonstration page uses our WeatherBlox Daily Observations layout. Learn more.

Left ArrowRight Arrow

34.16533, -84.80231

Hourly Observations for June 9, 2019

Temp ( °F °C ) Dew Point ( °F °C ) Humidity (%) Winds ( mph kmh ) Pressure ( in mb ) Visibility ( mi km ) Precip ( " mm )
12:05 am 00:05 Cloudy 70 21.1 69 20.6 97 97 ESE 3 6 29.84 1010 7 11 0.00 0.00
12:25 am 00:25 Cloudy with Light Rain 70 21.1 69 20.6 97 97 ESE 5 7 29.84 1010 7 11 0.01 0.25
12:53 am 00:53 Cloudy 70 21.1 69 20.6 97 97 VRB 5 7 29.83 1010 10 16 0.01 0.25
1:18 am 01:18 Mostly Cloudy with Light Rain 70 21.1 69 20.6 97 97 ESE 3 6 29.84 1010 10 16 0.01 0.25
1:53 am 01:53 Cloudy 70 21.1 69 20.6 97 97 SE 5 7 29.83 1010 10 16 0.01 0.25
2:53 am 02:53 Cloudy with Light Rain 71 21.7 69 20.6 94 94 SE 3 6 29.81 1010 10 16 0.00 0.03
3:00 am 03:00 Cloudy with Light Rain 71 21.7 69 20.6 94 94 SE 5 7 29.83 1010 10 16 0.00 0.03
3:53 am 03:53 Cloudy 71 21.7 69 20.6 94 94 SE 3 6 29.82 1010 10 16 0.01 0.25
4:04 am 04:04 Cloudy 71 21.7 69 20.6 94 94 ESE 5 7 29.83 1010 10 16 0.00 0.00
4:53 am 04:53 Cloudy 70 21.1 69 20.6 97 97 SE 5 7 29.81 1010 10 16 0.00 0.03
5:13 am 05:13 Cloudy 70 21.1 69 20.6 97 97 SSE 3 6 29.84 1010 10 16 0.00 0.00
5:22 am 05:22 Cloudy 71 21.7 69 20.6 94 94 SSE 3 6 29.84 1010 10 16 0.00 0.00
6:53 am 06:53 Cloudy 70 21.1 68 20 93 93 E 3 6 29.86 1011 10 16 0.00 0.00
7:10 am 07:10 Cloudy 70 21.1 68 20 93 93 Calm 29.86 1011 10 16 0.00 0.00
7:24 am 07:24 Cloudy 70 21.1 68 20 93 93 Calm 29.87 1011 10 16 0.00 0.00
7:53 am 07:53 Cloudy 71 21.7 68 20 90 90 ESE 5 7 29.86 1011 10 16 0.00 0.00
8:29 am 08:29 Mostly Cloudy 71 21.7 69 20.6 94 94 ESE 3 6 29.89 1012 10 16 0.00 0.00
8:43 am 08:43 Mostly Cloudy 72 22.2 69 20.6 91 91 SE 5 7 29.89 1012 10 16 0.00 0.00
8:53 am 08:53 Cloudy 72 22.2 69 20.6 91 91 VRB 7 11 29.88 1012 10 16 0.00 0.00
9:53 am 09:53 Cloudy 74 23.3 69 20.6 85 85 SSE 3 6 29.88 1012 10 16 0.00 0.00
10:53 am 10:53 Cloudy 74 23.3 69 20.6 85 85 VRB 5 7 29.89 1012 10 16 0.00 0.00
11:53 am 11:53 Cloudy 76 24.4 70 21.1 82 82 E 8 13 29.89 1012 10 16 0.00 0.00
12:51 pm 12:51 Cloudy 77 25 70 21 79 79 SE 5 7 29.89 1012 10 16 0.00 0.00
12:53 pm 12:53 Cloudy 77 25 70 21.1 79 79 SSE 5 7 29.88 1012 10 16 0.00 0.00
1:53 pm 13:53 Cloudy with Light Rain 75 23.9 71 21.7 88 88 ESE 5 7 29.88 1012 8 13 0.00 0.03
2:42 pm 14:42 Cloudy 78 25.6 71 21.7 79 79 Calm 29.87 1011 10 16 0.00 0.03
2:53 pm 14:53 Cloudy 80 26.7 71 21.7 74 74 ENE 7 11 29.86 1011 10 16 0.00 0.03
3:53 pm 15:53 Partly Cloudy 82 27.8 71 21.7 69 69 E 12 19 29.85 1011 10 16 0.00 0.00
4:53 pm 16:53 Mostly Cloudy 81 27.2 71 21.7 72 72 ESE 8 13 29.85 1011 10 16 0.00 0.00
5:53 pm 17:53 Sunny 79 26.1 69 20.6 72 72 SE 6 9 29.85 1011 10 16 0.00 0.00
6:53 pm 18:53 Mostly Cloudy 80 26.7 71 21.7 74 74 SE 5 7 29.85 1011 10 16 0.00 0.00
7:53 pm 19:53 Cloudy 78 25.6 72 22.2 82 82 Calm 29.88 1012 10 16 0.00 0.00
8:22 pm 20:22 Cloudy 77 25 74 23.3 90 90 Calm 29.89 1012 10 16 0.00 0.00
8:45 pm 20:45 Cloudy 77 25 71 21.7 82 82 Calm 29.89 1012 10 16 0.00 0.00
8:53 pm 20:53 Mostly Cloudy 76 24.4 71 21.7 85 85 S 5 7 29.88 1012 10 16 0.00 0.00
9:53 pm 21:53 Mostly Cloudy 75 23.9 71 21.7 88 88 Calm 29.89 1012 10 16 0.00 0.03
10:12 pm 22:12 Cloudy 75 23.9 71 21.7 88 88 Calm 29.91 1013 10 16 0.00 0.00
10:34 pm 22:34 Cloudy with Light Rain 74 23.3 71 21.7 91 91 Calm 29.91 1013 9 14 0.00 0.03
10:53 pm 22:53 Cloudy 74 23.3 71 21.7 91 91 Calm 29.90 1013 10 16 0.01 0.25
11:53 pm 23:53 Mostly Cloudy 72 22.2 71 21.7 97 97 Calm 29.90 1012 10 16 0.00 0.00

Powered by AerisWeather